Flag for Switzerland Weather past 2 weeks in Biel, Switzerland

Now
54 °F

Cool.


Feels Like: 54 °F
Forecast: 38 / 61 °F
Wind: 3 mph from Southeast

Location: Grenchen

Current Time: Sep 22, 2014 at 10:20:19 AM

Latest Report: Sep 22, 2014 at 9:00 AM


Visibility: N/A

Pressure: 30.16 "Hg

Humidity: 83%

Dew point: 49 °F

Location of BielLocation

Historic Weather in Biel — Graph

°F

Biel temperature yesterday

Maximum temperature yesterday: 68 °F (at 2:00 PM)
Minimum temperature yesterday: 56 °F (at 3:00 AM)
Average temperature yesterday: 61 °F

Past Weeks' High & Low Weather Summary

 TemperatureHumidityPressure
High79 °F (Sep 7, 5:00 PM)100% (Sep 8, 6:00 AM)30.16 "Hg (Sep 8, 6:00 AM)
Low49 °F (Sep 12, 7:00 AM)42% (Sep 16, 5:00 PM)29.80 "Hg (Sep 17, 4:00 PM)
Average62 °F81%30.00 "Hg
* Reported Sep 7 9:00 AM — Sep 22 9:00 AM, Biel, Weather by CustomWeather, © 2014

Note: Actual official high and low records may vary slightly from our data, if they occured in-between our weather recording intervals... More about our weather records

Advertising

Biel weather history for previous 24 hours

 ConditionsComfort  
Time TempWeatherWind HumidityBarometerVisibility
9:00 AM
Sep 22
54 °FCool.3 mph83%30.16 "HgN/A
8:00 AM53 °FCool.3 mph87%30.15 "HgN/A
7:00 AM54 °FCool.1 mph86%30.13 "HgN/A
6:00 AM54 °FCool.2 mph91%30.12 "HgN/A
5:00 AM56 °FCool.2 mph90%30.11 "HgN/A
4:00 AM57 °FCool.3 mph80%30.11 "HgN/A
3:00 AM57 °FCool.2 mph89%30.11 "HgN/A
2:00 AM57 °FCool.2 mph84%30.11 "HgN/A
1:00 AM58 °FCool.2 mph85%30.11 "HgN/A
12:00 AM59 °FCool.5 mph94%30.09 "HgN/A
11:00 PM
Sep 21
59 °FCool.3 mph92%30.09 "HgN/A
10:00 PM59 °FCool.6 mph92%30.09 "HgN/A
9:00 PM60 °FCool.5 mph92%30.07 "HgN/A
8:00 PM61 °FCool.7 mph86%30.06 "HgN/A
7:00 PM62 °FCool.8 mph79%30.03 "HgN/A
6:00 PM65 °FMild.6 mph73%30.01 "HgN/A
5:00 PM65 °FMild.15 mph70%30.00 "HgN/A
4:00 PM65 °FMild.14 mph72%30.00 "HgN/A
3:00 PM68 °FMild.12 mph70%29.98 "HgN/A
2:00 PM68 °FMild.10 mph77%29.99 "HgN/A
1:00 PM66 °FMild.6 mph87%30.02 "HgN/A
12:00 PM67 °FMild.6 mph76%30.03 "HgN/A
11:00 AM65 °FMild.2 mph80%30.06 "HgN/A
10:00 AM62 °FCool.2 mph86%30.06 "HgN/A
Weather by CustomWeather, © 2014

See weather overviewHow to use our weather pages